Adrian, MI

9:22 PM EST on December 17, 2017 (GMT -0500)
Lenawee County

Weather History for KADG - June, 2012

Change the Weather History Date:

Sunday, June 17, 2012

  Actual Average Record
Temperature  
Mean Temperature 75 °F -  
Max Temperature 82 °F 80 °F 98 °F (1957)
Min Temperature 63 °F 55 °F 43 °F (1980)
Cooling Degree Days 10    
Growing Degree Days 25 (Base 50)    
Moisture  
Dew Point 64 °F    
Average Humidity 72    
Maximum Humidity 94    
Minimum Humidity 44    
Precipitation  
Precipitation 0.19 in - - ()
Sea Level Pressure  
Sea Level Pressure 29.89 in    
Wind  
Wind Speed 7 mph (West)    
Max Wind Speed 13 mph    
Max Gust Speed 16 mph    
Visibility 9 miles    
Events Rain    
Averages and records for this station are not official NWS values.
T = Trace of Precipitation, MM = Missing Value Source: NWS Daily Summary

Daily Weather History Graph

Daily Weather History Graph

Search for Another Location

Airport or City:

Trip Planner

Search our weather history database for the weather conditions in past years. The results will help you decide how hot, cold, wet, or windy it might be!

Date:

Astronomy

Jun. 17, 2012 Rise Set
Actual Time 6:00 AM EDT 9:14 PM EDT
Civil Twilight 5:26 AM EDT 9:48 PM EDT
Nautical Twilight 4:42 AM EDT 10:32 PM EDT
Astronomical Twilight 3:48 AM EDT 11:26 PM EDT
Moon 4:30 AM EDT (6/17) 7:41 PM EDT (6/17)
Length of Visible Light 16h 22m
Length of Day
15h 13m
Waning Crescent, 4% of the Moon is Illuminated
Jun 17
Waning Crescent
Jun 19
New
Jun 26
First Quarter
Jul 3
Full
Jul 10
Last Quarter

Hourly Weather History & Observations

Time (EDT) Temp. Heat Index Dew Point Humidity Pressure Visibility Wind Dir Wind Speed Gust Speed Precip Events Conditions
1:53 AM 75.9 °F - 64.9 °F 69% 29.94 in 10.0 mi SW 10.4 mph - N/A   Clear
2:53 AM 75.9 °F - 66.0 °F 71% 29.94 in 10.0 mi SW 10.4 mph - N/A   Clear
3:53 AM 73.0 °F - 66.0 °F 79% 29.93 in 9.0 mi SSW 4.6 mph - N/A   Clear
4:53 AM 73.0 °F - 66.9 °F 81% 29.94 in 8.0 mi West 4.6 mph - N/A   Mostly Cloudy
5:53 AM 72.0 °F - 63.0 °F 73% 29.92 in 10.0 mi West 5.8 mph - 0.01 in   Clear
6:53 AM 72.0 °F - 62.1 °F 71% 29.92 in 10.0 mi Calm Calm - N/A   Clear
7:53 AM 73.0 °F - 62.1 °F 68% 29.92 in 10.0 mi SSW 3.5 mph - N/A   Mostly Cloudy
8:53 AM 73.9 °F - 62.1 °F 66% 29.92 in 10.0 mi SSW 6.9 mph - N/A   Overcast
9:53 AM 75.9 °F - 62.1 °F 62% 29.92 in 10.0 mi SSW 8.1 mph - N/A   Mostly Cloudy
10:53 AM 75.9 °F - 63.0 °F 64% 29.91 in 10.0 mi South 9.2 mph - 0.00 in Rain Light Rain
11:53 AM 71.1 °F - 66.0 °F 84% 29.91 in 2.5 mi West 4.6 mph - 0.10 in Rain Rain
12:06 PM 69.8 °F - 66.2 °F 88% 29.91 in 1.8 mi WNW 5.8 mph - 0.05 in Rain Rain
12:11 PM 69.8 °F - 66.2 °F 88% 29.91 in 3.0 mi WNW 6.9 mph - 0.05 in Rain Light Rain
12:53 PM 70.0 °F - 66.9 °F 90% 29.90 in 6.0 mi WNW 4.6 mph - 0.07 in Rain Light Rain
1:04 PM 69.8 °F - 68.0 °F 94% 29.90 in 8.0 mi WNW 3.5 mph - 0.00 in Rain Light Rain
1:27 PM 71.6 °F - 68.0 °F 88% 29.89 in 10.0 mi WNW 5.8 mph - 0.00 in   Overcast
1:53 PM 72.0 °F - 68.0 °F 87% 29.88 in 10.0 mi WNW 5.8 mph - 0.01 in   Overcast
2:09 PM 73.4 °F - 68.0 °F 83% 29.88 in 10.0 mi West 9.2 mph - N/A   Overcast
2:28 PM 73.4 °F - 68.0 °F 83% 29.87 in 10.0 mi WNW 8.1 mph - 0.00 in   Overcast
2:53 PM 75.9 °F - 68.0 °F 76% 29.86 in 10.0 mi West 10.4 mph 16.1 mph 0.00 in   Mostly Cloudy
3:53 PM 79.0 °F - 66.0 °F 64% 29.84 in 10.0 mi NW 10.4 mph - N/A   Scattered Clouds
4:53 PM 81.0 °F 82.7 °F 64.9 °F 58% 29.84 in 10.0 mi West 9.2 mph - N/A   Scattered Clouds
5:53 PM 82.9 °F 84.4 °F 64.0 °F 53% 29.83 in 10.0 mi NW 12.7 mph - N/A   Partly Cloudy
6:53 PM 81.0 °F 81.3 °F 59.0 °F 47% 29.84 in 10.0 mi WNW 12.7 mph - N/A   Clear
7:53 PM 79.0 °F - 55.0 °F 44% 29.85 in 10.0 mi NW 9.2 mph - N/A   Clear
8:53 PM 75.9 °F - 55.9 °F 50% 29.86 in 10.0 mi WNW 5.8 mph - N/A   Clear
9:53 PM 71.1 °F - 55.9 °F 59% 29.88 in 10.0 mi WNW 3.5 mph - N/A   Clear
10:53 PM 68.0 °F - 54.0 °F 61% 29.87 in 10.0 mi NW 3.5 mph - N/A   Clear
11:53 PM 63.0 °F - 55.9 °F 78% 29.88 in 10.0 mi Calm Calm - N/A   Clear